Location: Clatteringshaws Loch
(55.0508°N, 4.2860°W)
Time: 13:59:37
(UTC+00:00)

Amateur Radio Satellites - All Passes

Search period start: 15 December 2017 13:29
Search period end: 16 December 2017 13:29
Location: Clatteringshaws Loch, 55.0508°N, 4.2860°W

Satellite Date Start Highest point End Downlink Frequencies (MHz)
Time Altitude Azimuth
Oscar 19 15 Dec 13:40:04 13:44:46 35° 264° (W) 13:49:32 437.125/150
ISS 15 Dec 13:40:40 13:43:44 36° 165° (SSE) 13:46:49 437.550
LO-87 15 Dec 13:43:16 13:43:36 10° 307° (NW) 13:43:56 145.935 - 145.965
VELOX 1 15 Dec 13:56:11 14:00:33 58° 291° (WNW) 14:04:52 145.980
ESTCUBE 1 15 Dec 14:03:03 14:05:42 15° 309° (NW) 14:08:21 437.505/2401.250
BUGSAT 1 15 Dec 14:04:51 14:05:51 11° 275° (W) 14:06:51 437.445
NO-84 15 Dec 14:06:39 14:08:15 12° 226° (SW) 14:09:53 435.350 FM
DOVE 4 15 Dec 14:09:04 14:11:48 15° 49° (NE) 14:14:28 437.250
MOZHAYETS 4 15 Dec 14:21:52 14:24:46 16° 86° (E) 14:27:40
Gurwin Techsat 1B 15 Dec 14:27:48 14:31:53 22° 271° (W) 14:36:01 435.225
nSIGHT-1 15 Dec 14:32:32 14:35:39 45° 179° (S) 14:38:46 .
UKube-1 15 Dec 14:32:46 14:37:03 58° 102° (ESE) 14:41:18 .
SPROUT 15 Dec 14:33:02 14:36:09 20° 303° (WNW) 14:39:16 437.525
50 SAT 15 Dec 14:39:18 14:42:27 61° 289° (WNW) 14:45:33 437.505
AO-91 15 Dec 14:41:27 14:42:39 11° 275° (W) 14:43:51 145.960
BEESAT 15 Dec 14:48:00 14:51:23 19° 89° (E) 14:54:46 436.000
CUTE-I 15 Dec 14:49:42 14:50:07 10° 37° (NE) 14:50:33 437.470
DX 1 15 Dec 14:49:53 14:54:15 69° 289° (WNW) 14:58:33 434.975-435.025
ITAMSAT 1 15 Dec 14:52:37 14:57:51 88° 73° (ENE) 15:03:06 435.822/435.867
AO-7 15 Dec 14:54:52 15:03:08 67° 254° (WSW) 15:11:30 .
M-CUBED/EXP-1 PRIME 15 Dec 14:57:59 15:02:16 45° 256° (WSW) 15:06:43 437.505
HO-68 15 Dec 15:00:25 15:04:08 15° 29° (NNE) 15:07:50 435.675
O/OREOS (USA 219) 15 Dec 15:11:09 15:13:41 14° 25° (NNE) 15:16:13 437.305
ITUPSAT 1 15 Dec 15:16:16 15:20:31 30° 95° (E) 15:24:44 437.325
ISS 15 Dec 15:16:44 15:19:54 45° 185° (S) 15:23:05 437.550
YUBILEINY 15 Dec 15:17:49 15:26:11 49° 273° (W) 15:34:28 435.215
RS-15 15 Dec 15:23:33 15:35:42 68° 124° (SE) 15:47:37 29.354- 29.394
VELOX 1 15 Dec 15:34:17 15:36:08 12° 312° (NW) 15:37:59 145.980
XW-2C 15 Dec 15:42:57 15:44:49 13° 54° (NE) 15:46:42 145.795 - 145.815
DOVE 4 15 Dec 15:43:29 15:48:37 59° 69° (ENE) 15:53:33 437.250
CUBESAT XI-V 15 Dec 15:46:15 15:50:13 26° 92° (E) 15:54:10 437.345
MOZHAYETS 4 15 Dec 15:57:55 16:02:35 87° 286° (WNW) 16:07:13
SO-50 15 Dec 16:06:28 16:10:46 49° 128° (SE) 16:15:11 436.795
nSIGHT-1 15 Dec 16:08:37 16:11:31 31° 199° (SSW) 16:14:25 .
UKube-1 15 Dec 16:09:19 16:12:47 24° 302° (WNW) 16:16:14 .
LilacSat-2 15 Dec 16:18:35 16:21:50 27° 63° (ENE) 16:25:07 437.200
CUTE-I 15 Dec 16:23:56 16:28:45 35° 59° (ENE) 16:33:36 437.470
BEESAT 15 Dec 16:24:57 16:29:44 78° 288° (WNW) 16:34:30 436.000
DX 1 15 Dec 16:27:25 16:29:40 14° 310° (NW) 16:31:55 434.975-435.025
CUTE 1.7 + AOD 2 15 Dec 16:30:34 16:32:51 14° 52° (NE) 16:35:10 437.475
XW-2D 15 Dec 16:31:40 16:35:06 33° 65° (ENE) 16:38:34 145.860 - 145.880
NUDT-PHONESAT 15 Dec 16:33:18 16:36:21 24° 62° (ENE) 16:39:25 437.300
ITAMSAT 1 15 Dec 16:34:27 16:38:02 19° 272° (W) 16:41:39 435.822/435.867
KAITUO 1B 15 Dec 16:38:08 16:41:24 28° 64° (ENE) 16:44:41 145.475/437.950
HO-68 15 Dec 16:43:33 16:50:02 38° 53° (NE) 16:56:32 435.675
XW-2B 15 Dec 16:47:20 16:50:57 44° 68° (ENE) 16:54:38 145.730 - 145.750
O/OREOS (USA 219) 15 Dec 16:49:57 16:54:18 43° 49° (NE) 16:58:36 437.305
AO-7 15 Dec 16:52:07 16:57:36 19° 277° (W) 17:03:10 .
ISS 15 Dec 16:53:14 16:55:58 24° 205° (SSW) 16:58:41 437.550
ITUPSAT 1 15 Dec 16:53:57 16:58:32 48° 295° (WNW) 17:03:07 437.325
XW-2F 15 Dec 16:58:38 17:02:20 53° 70° (ENE) 17:06:05 145.980 - 146.000
XW-2C 15 Dec 17:14:35 17:18:23 82° 74° (ENE) 17:22:14 145.795 - 145.815
YUBILEINY 15 Dec 17:17:07 17:20:40 13° 297° (WNW) 17:24:14 435.215
DOVE 4 15 Dec 17:22:08 17:26:35 28° 268° (W) 17:30:55 437.250
CUBESAT XI-V 15 Dec 17:23:16 17:27:54 55° 292° (WNW) 17:32:30 437.345
UWE-3 15 Dec 17:24:01 17:26:34 16° 55° (NE) 17:29:08 435.000/436.395/437.385
CUBEBUG 2 15 Dec 17:25:01 17:28:22 24° 60° (ENE) 17:31:44 437.445
MOZHAYETS 4 15 Dec 17:36:03 17:39:08 18° 307° (NW) 17:42:13
RS-15 15 Dec 17:36:19 17:48:37 66° 333° (NNW) 18:00:34 29.354- 29.394
SEEDS 15 Dec 17:39:45 17:43:31 32° 64° (ENE) 17:47:20 437.485
KKS-1 15 Dec 17:42:04 17:46:28 58° 102° (ESE) 17:50:50 437.445
nSIGHT-1 15 Dec 17:46:06 17:47:00 11° 217° (SW) 17:47:54 .
SO-50 15 Dec 17:46:59 17:51:20 45° 330° (NNW) 17:55:46 436.795
ZACube-1 15 Dec 17:47:21 17:49:48 16° 54° (NE) 17:52:18 437.345
LilacSat-2 15 Dec 17:52:21 17:55:58 40° 262° (W) 17:59:39 437.200
AAUSAT CUBESAT 2 15 Dec 17:56:39 18:00:01 24° 60° (ENE) 18:03:25 437.432
CUTE-I 15 Dec 18:03:26 18:08:40 52° 259° (W) 18:13:56 437.470
CUTE 1.7 + AOD 2 15 Dec 18:03:44 18:08:00 75° 72° (ENE) 18:12:18 437.475
BEESAT 15 Dec 18:03:46 18:06:50 17° 309° (NW) 18:09:52 436.000
Oscar 11 15 Dec 18:05:29 18:08:04 16° 53° (NE) 18:10:40 .
XW-2D 15 Dec 18:05:53 18:09:17 31° 265° (W) 18:12:44 145.860 - 145.880
NUDT-PHONESAT 15 Dec 18:06:30 18:10:01 41° 262° (W) 18:13:36 437.300
KAITUO 1B 15 Dec 18:11:48 18:15:17 35° 263° (W) 18:18:50 145.475/437.950
PCSat 15 Dec 18:16:54 18:21:12 24° 111° (ESE) 18:25:30 145.827
AO-73 15 Dec 18:19:39 18:22:59 24° 60° (ENE) 18:26:23 145.935
XW-2B 15 Dec 18:22:15 18:25:20 23° 268° (W) 18:28:27 145.730 - 145.750
STARS 15 Dec 18:22:44 18:27:06 62° 103° (ESE) 18:31:25 437.465
XW-2A 15 Dec 18:28:20 18:31:27 37° 67° (ENE) 18:34:37 145.665 - 145.685
O/OREOS (USA 219) 15 Dec 18:29:33 18:33:40 35° 250° (WSW) 18:37:44 437.305
HO-68 15 Dec 18:30:17 18:37:28 68° 255° (WSW) 18:44:40 435.675
ITUPSAT 1 15 Dec 18:33:38 18:35:20 12° 316° (NW) 18:37:02 437.325
XW-2F 15 Dec 18:33:59 18:36:45 19° 270° (W) 18:39:33 145.980 - 146.000
XW-2C 15 Dec 18:51:16 18:53:07 13° 274° (W) 18:54:58 145.795 - 145.815
DELFI C3 15 Dec 18:53:38 18:54:16 10° 50° (NE) 18:54:53 145.870
UWE-3 15 Dec 18:58:20 19:02:29 88° 256° (WSW) 19:06:40 435.000/436.395/437.385
CUBEBUG 2 15 Dec 19:00:42 19:04:47 52° 260° (W) 19:08:51 437.445
CUBESAT XI-V 15 Dec 19:02:17 19:04:21 13° 312° (NW) 19:06:24 437.345
FO-29 15 Dec 19:06:24 19:10:41 17° 77° (ENE) 19:14:40 435.910
SEEDS 15 Dec 19:15:10 19:19:08 39° 263° (W) 19:23:10 437.485
KKS-1 15 Dec 19:19:07 19:22:44 25° 302° (WNW) 19:26:20 437.445
ZACube-1 15 Dec 19:21:21 19:25:29 88° 80° (E) 19:29:42 437.345
SO-50 15 Dec 19:28:55 19:32:45 26° 354° (N) 19:36:38 436.795
AAUSAT CUBESAT 2 15 Dec 19:31:06 19:35:12 54° 260° (W) 19:39:21 437.432
Oscar 11 15 Dec 19:39:15 19:43:34 82° 74° (ENE) 19:47:57 .
CUTE 1.7 + AOD 2 15 Dec 19:41:32 19:44:20 17° 272° (W) 19:47:11 437.475
STRAND 1 15 Dec 19:43:17 19:48:18 52° 100° (E) 19:53:16 437.568
RS-15 15 Dec 19:51:22 20:03:20 54° 5° (N) 20:14:47 29.354- 29.394
AO-73 15 Dec 19:54:58 19:59:00 51° 260° (W) 20:03:06 145.935
PCSat 15 Dec 19:58:37 20:04:03 83° 312° (NW) 20:09:32 145.827
STARS 15 Dec 19:59:40 20:03:06 23° 303° (WNW) 20:06:33 437.465
XW-2A 15 Dec 20:01:37 20:04:16 22° 267° (W) 20:06:59 145.665 - 145.685
BEESAT 3 15 Dec 20:09:19 20:12:42 26° 121° (ESE) 20:16:04 437.485
HO-68 15 Dec 20:22:00 20:26:35 18° 277° (W) 20:31:12 435.675
Max Valier Satellite 15 Dec 20:23:12 20:26:36 37° 67° (ENE) 20:30:03 145.860
DELFI C3 15 Dec 20:24:15 20:28:10 55° 70° (ENE) 20:32:06 145.870
UWE-3 15 Dec 20:37:43 20:39:37 13° 275° (W) 20:41:33 435.000/436.395/437.385
EO-88 15 Dec 20:48:50 20:52:22 48° 69° (ENE) 20:55:56 145.990 - 145.960
FO-29 15 Dec 20:50:07 20:57:20 67° 101° (ESE) 21:03:39 435.910
BEESAT 2 15 Dec 20:51:46 20:54:57 23° 119° (ESE) 20:58:10 435.950
ZACube-1 15 Dec 21:00:18 21:02:27 14° 274° (W) 21:04:35 437.345
SO-50 15 Dec 21:10:17 21:14:23 31° 18° (NNE) 21:18:33 436.795
LO-87 15 Dec 21:17:30 21:19:59 18° 60° (ENE) 21:22:29 145.935 - 145.965
Oscar 11 15 Dec 21:17:39 21:20:18 16° 273° (W) 21:22:59 .
AO-85 15 Dec 21:21:30 21:23:29 13° 112° (ESE) 21:25:33 145.980
STRAND 1 15 Dec 21:22:48 21:27:19 33° 301° (WNW) 21:31:49 437.568
PCSat 15 Dec 21:43:21 21:48:11 32° 336° (NNW) 21:53:02 145.827
BEESAT 3 15 Dec 21:46:00 21:49:59 62° 322° (NW) 21:53:58 437.485
VELOX 1 15 Dec 21:51:33 21:52:31 11° 46° (NE) 21:53:29 145.980
ESTCUBE 1 15 Dec 21:54:53 21:59:04 39° 64° (ENE) 22:03:19 437.505/2401.250
Max Valier Satellite 15 Dec 21:57:27 22:00:32 25° 266° (W) 22:03:39 145.860
DELFI C3 15 Dec 22:00:12 22:03:13 20° 269° (W) 22:06:15 145.870
TIGRISAT 15 Dec 22:02:46 22:06:59 49° 100° (E) 22:11:15 435.000
RS-15 15 Dec 22:05:25 22:17:36 78° 37° (NE) 22:29:05 29.354- 29.394
UNISAT 6 15 Dec 22:06:18 22:10:35 57° 101° (E) 22:14:55 437.425
SPROUT 15 Dec 22:21:40 22:24:54 22° 58° (ENE) 22:28:09 437.525
EO-88 15 Dec 22:23:33 22:26:15 19° 269° (W) 22:29:00 145.990 - 145.960
PRISM 15 Dec 22:27:03 22:30:43 30° 95° (E) 22:34:19 437.425
BEESAT 2 15 Dec 22:28:16 22:32:19 72° 320° (NW) 22:36:24 435.950
FO-29 15 Dec 22:35:29 22:41:59 37° 306° (NW) 22:47:49 435.910
LO-87 15 Dec 22:49:36 22:53:05 54° 260° (W) 22:56:34 145.935 - 145.965
SO-50 15 Dec 22:50:49 22:55:28 78° 41° (NE) 23:00:10 436.795
POLYITAN 1 15 Dec 22:56:45 22:57:47 11° 84° (E) 22:58:48 437.675
AO-85 15 Dec 22:59:05 23:03:05 75° 134° (SE) 23:07:24 145.980
AIST 2D 15 Dec 23:10:53 23:14:10 33° 97° (E) 23:17:25 435.315
QB50P2 15 Dec 23:20:55 23:24:01 20° 90° (E) 23:27:07 145.880/145.840
VELOX 1 15 Dec 23:23:42 23:27:58 47° 67° (ENE) 23:32:16 145.980
DUCHIFAT 1 15 Dec 23:24:41 23:27:14 15° 88° (E) 23:29:46 145.980
BEESAT 3 15 Dec 23:24:53 23:28:11 24° 344° (NNW) 23:31:29 437.485
PCSat 15 Dec 23:28:49 23:33:08 23° 2° (N) 23:37:27 145.827
ESTCUBE 1 15 Dec 23:31:46 23:35:56 35° 264° (W) 23:40:08 437.505/2401.250
TIGRISAT 15 Dec 23:39:51 23:43:29 27° 299° (WNW) 23:47:11 435.000
50 SAT 15 Dec 23:41:14 23:43:04 15° 58° (ENE) 23:44:55 437.505
UNISAT 6 15 Dec 23:43:33 23:47:02 24° 301° (WNW) 23:50:33 437.425
NANOSAT C BR1 15 Dec 23:51:00 23:54:41 29° 94° (E) 23:58:22 145.865
SPROUT 15 Dec 23:56:14 00:00:27 64° 258° (WSW) 00:04:41 437.525
UKube-1 15 Dec 23:59:07 00:02:25 22° 56° (ENE) 00:05:44 .
PRISM 16 Dec 00:02:13 00:06:04 39° 295° (WNW) 00:09:53 437.425
EO-79 16 Dec 00:06:53 00:10:56 44° 99° (E) 00:14:58 145.935-145.965
BEESAT 2 16 Dec 00:07:11 00:10:38 26° 342° (NNW) 00:14:06 435.950
DX 1 16 Dec 00:16:10 00:20:15 40° 64° (ENE) 00:24:22 434.975-435.025
RS-15 16 Dec 00:18:23 00:29:30 49° 245° (WSW) 00:40:03 29.354- 29.394
FO-29 16 Dec 00:21:36 00:25:01 14° 330° (NNW) 00:28:18 435.910
BEESAT 16 Dec 00:26:57 00:28:33 12° 44° (NE) 00:30:10 436.000
POLYITAN 1 16 Dec 00:30:07 00:34:21 71° 104° (ESE) 00:38:35 437.675
SO-50 16 Dec 00:31:46 00:35:33 25° 241° (WSW) 00:39:23 436.795
AO-85 16 Dec 00:40:06 00:43:53 33° 337° (NNW) 00:47:56 145.980
YUBILEINY 16 Dec 00:41:30 00:44:36 12° 62° (ENE) 00:47:42 435.215
AIST 2D 16 Dec 00:44:12 00:47:15 27° 296° (WNW) 00:50:18 435.315
AO-91 16 Dec 00:45:33 00:46:34 11° 86° (E) 00:47:34 145.960
ITUPSAT 1 16 Dec 00:54:15 00:57:17 17° 50° (NE) 01:00:20 437.325
Gurwin Techsat 1B 16 Dec 00:55:45 00:59:19 18° 86° (E) 01:02:51 435.225
QB50P2 16 Dec 00:56:01 01:00:13 63° 289° (WNW) 01:04:24 145.880/145.840
DUCHIFAT 1 16 Dec 00:59:14 01:03:27 80° 288° (WNW) 01:07:39 145.980
VELOX 1 16 Dec 01:00:46 01:04:37 28° 266° (W) 01:08:29 145.980
BEESAT 3 16 Dec 01:03:46 01:06:51 21° 8° (N) 01:09:55 437.485
50 SAT 16 Dec 01:11:30 01:14:38 59° 257° (WSW) 01:17:48 437.505
PCSat 16 Dec 01:13:04 01:18:02 34° 27° (NNE) 01:22:59 145.827
CUBESAT XI-V 16 Dec 01:22:08 01:24:09 13° 47° (NE) 01:26:08 437.345
NANOSAT C BR1 16 Dec 01:26:34 01:30:31 41° 294° (WNW) 01:34:30 145.865
MOZHAYETS 4 16 Dec 01:30:03 01:34:10 34° 63° (ENE) 01:38:20
UKube-1 16 Dec 01:33:45 01:38:03 67° 256° (WSW) 01:42:24 .
BUGSAT 1 16 Dec 01:35:15 01:39:16 67° 103° (ESE) 01:43:19 437.445
EO-79 16 Dec 01:42:56 01:46:34 29° 298° (WNW) 01:50:12 145.935-145.965
Oscar 19 16 Dec 01:43:28 01:48:32 49° 99° (E) 01:53:34 437.125/150
BEESAT 2 16 Dec 01:46:21 01:49:30 21° 5° (N) 01:52:38 435.950
DX 1 16 Dec 01:52:34 01:56:31 32° 264° (W) 02:00:30 434.975-435.025
BEESAT 16 Dec 02:00:45 02:05:18 48° 65° (ENE) 02:09:53 436.000
POLYITAN 1 16 Dec 02:06:39 02:09:43 20° 303° (WNW) 02:12:47 437.675
AO-91 16 Dec 02:20:08 02:23:43 79° 288° (WNW) 02:27:07 145.960
AO-85 16 Dec 02:21:54 02:25:25 23° 2° (N) 02:29:10 145.980
ITUPSAT 1 16 Dec 02:29:40 02:34:25 78° 71° (ENE) 02:39:13 437.325
YUBILEINY 16 Dec 02:30:45 02:39:00 47° 87° (E) 02:47:18 435.215
QB50P2 16 Dec 02:33:27 02:35:13 12° 310° (NW) 02:36:59 145.880/145.840
RS-15 16 Dec 02:33:55 02:38:31 13° 272° (W) 02:43:03 29.354- 29.394
Gurwin Techsat 1B 16 Dec 02:34:41 02:40:03 87° 108° (ESE) 02:45:24 435.225
DUCHIFAT 1 16 Dec 02:36:08 02:38:28 15° 307° (NW) 02:40:48 145.980
BEESAT 3 16 Dec 02:41:31 02:45:18 40° 31° (NNE) 02:49:02 437.485
AO-7 16 Dec 02:48:24 02:55:28 29° 91° (E) 03:02:28 .
CUBESAT XI-V 16 Dec 02:56:00 03:00:33 55° 68° (ENE) 03:05:11 437.345
PCSat 16 Dec 02:56:32 03:02:00 84° 233° (SW) 03:07:26 145.827
ITAMSAT 1 16 Dec 02:58:57 03:02:31 18° 87° (E) 03:06:04 435.822/435.867
MOZHAYETS 4 16 Dec 03:06:59 03:11:17 41° 263° (W) 03:15:38
BUGSAT 1 16 Dec 03:11:21 03:14:15 19° 303° (WNW) 03:17:09 437.445
KKS-1 16 Dec 03:11:29 03:15:00 23° 57° (ENE) 03:18:32 437.445
UKube-1 16 Dec 03:14:03 03:14:56 11° 276° (W) 03:15:50 .
Oscar 19 16 Dec 03:23:02 03:27:45 36° 300° (WNW) 03:32:27 437.125/150
BEESAT 2 16 Dec 03:24:23 03:28:11 36° 29° (NNE) 03:31:57 435.950
BEESAT 16 Dec 03:39:03 03:43:16 31° 265° (W) 03:47:30 436.000
FO-29 16 Dec 03:47:19 03:48:49 11° 21° (NNE) 03:50:18 435.910
STARS 16 Dec 03:50:50 03:54:19 23° 57° (ENE) 03:57:48 437.465
AO-91 16 Dec 03:58:32 03:59:31 11° 309° (NW) 04:00:30 145.960
AO-85 16 Dec 04:02:46 04:06:56 36° 25° (NNE) 04:11:23 145.980
M-CUBED/EXP-1 PRIME 16 Dec 04:03:28 04:07:55 48° 105° (ESE) 04:12:08 437.505
ITUPSAT 1 16 Dec 04:09:27 04:12:49 19° 271° (W) 04:16:13 437.325
Gurwin Techsat 1B 16 Dec 04:15:23 04:19:26 23° 308° (NW) 04:23:28 435.225
BEESAT 3 16 Dec 04:19:07 04:22:55 46° 232° (SW) 04:26:41 437.485
YUBILEINY 16 Dec 04:27:02 04:35:43 58° 291° (WNW) 04:44:28 435.215
CUBESAT XI-V 16 Dec 04:34:18 04:38:14 26° 268° (W) 04:42:12 437.345
ITAMSAT 1 16 Dec 04:37:29 04:42:43 88° 289° (WNW) 04:47:54 435.822/435.867
PCSat 16 Dec 04:40:49 04:44:42 20° 251° (WSW) 04:48:34 145.827
AO-7 16 Dec 04:40:51 04:49:17 89° 293° (WNW) 04:57:42 .
KKS-1 16 Dec 04:46:47 04:51:13 65° 257° (WSW) 04:55:41 437.445
BEESAT 2 16 Dec 05:02:07 05:06:06 56° 230° (SW) 05:10:02 435.950
DOVE 4 16 Dec 05:12:54 05:17:27 55° 100° (E) 05:21:44 437.250
LilacSat-2 16 Dec 05:18:58 05:21:18 15° 88° (E) 05:23:39 437.200
FO-29 16 Dec 05:25:25 05:31:23 25° 45° (NE) 05:37:11 435.910
STARS 16 Dec 05:25:58 05:30:19 62° 257° (WSW) 05:34:42 437.465
STRAND 1 16 Dec 05:28:08 05:32:35 31° 58° (ENE) 05:37:01 437.568
NUDT-PHONESAT 16 Dec 05:30:21 05:32:05 13° 87° (E) 05:33:49 437.300
XW-2D 16 Dec 05:31:07 05:33:54 19° 90° (E) 05:36:40 145.860 - 145.880
KAITUO 1B 16 Dec 05:36:06 05:38:25 15° 88° (E) 05:40:44 145.475/437.950
M-CUBED/EXP-1 PRIME 16 Dec 05:38:01 05:42:08 33° 306° (NW) 05:46:04 437.505
AO-85 16 Dec 05:43:06 05:47:44 77° 226° (SW) 05:52:43 145.980
XW-2B 16 Dec 05:46:45 05:49:59 25° 93° (E) 05:53:11 145.730 - 145.750
HO-68 16 Dec 05:50:59 05:55:39 18° 83° (E) 06:00:15 435.675
XW-2F 16 Dec 05:57:29 06:00:54 29° 95° (E) 06:04:17 145.980 - 146.000
CUTE-I 16 Dec 06:12:55 06:17:53 37° 96° (E) 06:22:49 437.470
XW-2C 16 Dec 06:13:57 06:17:41 45° 99° (E) 06:21:24 145.795 - 145.815
ITAMSAT 1 16 Dec 06:17:46 06:21:34 21° 309° (NW) 06:25:22 435.822/435.867
KKS-1 16 Dec 06:27:49 06:28:40 10° 277° (W) 06:29:33 437.445
YUBILEINY 16 Dec 06:28:41 06:34:54 20° 319° (NW) 06:41:10 435.215
AO-7 16 Dec 06:34:03 06:41:16 34° 317° (NW) 06:48:29 .
UWE-3 16 Dec 06:41:52 06:43:37 12° 85° (E) 06:45:24 435.000/436.395/437.385
CUBEBUG 2 16 Dec 06:44:10 06:47:19 20° 90° (E) 06:50:29 437.445
DOVE 4 16 Dec 06:51:03 06:54:52 26° 302° (WNW) 06:58:30 437.250
SEEDS 16 Dec 06:51:37 06:55:03 23° 91° (E) 06:58:28 437.485
LilacSat-2 16 Dec 06:52:08 06:56:03 72° 286° (WNW) 06:59:55 437.200
NO-84 16 Dec 07:01:42 07:04:10 22° 142° (SE) 07:06:48 435.350 FM
NUDT-PHONESAT 16 Dec 07:02:41 07:06:28 83° 289° (WNW) 07:10:14 437.300
ZACube-1 16 Dec 07:03:56 07:05:23 11° 84° (E) 07:06:50 437.345
XW-2D 16 Dec 07:04:35 07:08:24 56° 289° (WNW) 07:12:11 145.860 - 145.880
STRAND 1 16 Dec 07:06:30 07:11:32 57° 259° (WSW) 07:16:36 437.568
AAUSAT CUBESAT 2 16 Dec 07:06:39 07:09:15 16° 87° (E) 07:11:51 437.432
FO-29 16 Dec 07:07:29 07:15:17 68° 67° (ENE) 07:22:55 435.910
KAITUO 1B 16 Dec 07:09:02 07:12:50 69° 288° (WNW) 07:16:37 145.475/437.950
O/OREOS (USA 219) 16 Dec 07:12:54 07:14:10 11° 96° (E) 07:15:26 437.305
XW-2A 16 Dec 07:15:47 07:17:56 15° 90° (E) 07:20:04 145.665 - 145.685
CUTE 1.7 + AOD 2 16 Dec 07:16:59 07:21:15 56° 100° (E) 07:25:29 437.475
XW-2B 16 Dec 07:20:39 07:24:18 42° 292° (WNW) 07:27:57 145.730 - 145.750
Oscar 11 16 Dec 07:22:06 07:22:28 10° 82° (E) 07:22:51 .
AO-85 16 Dec 07:24:25 07:27:36 18° 245° (WSW) 07:30:54 145.980
XW-2F 16 Dec 07:31:31 07:35:03 35° 294° (WNW) 07:38:33 145.980 - 146.000
TIGRISAT 16 Dec 07:33:26 07:36:16 18° 55° (NE) 07:39:08 435.000
AO-73 16 Dec 07:35:39 07:38:50 19° 90° (E) 07:42:03 145.935
UNISAT 6 16 Dec 07:36:48 07:39:55 20° 57° (ENE) 07:43:01 437.425
HO-68 16 Dec 07:37:34 07:44:46 70° 105° (ESE) 07:51:54 435.675
XW-2C 16 Dec 07:48:31 07:51:40 24° 298° (WNW) 07:54:49 145.795 - 145.815
PRISM 16 Dec 07:50:50 07:52:05 11° 49° (NE) 07:53:20 437.425
CUTE-I 16 Dec 07:52:58 07:58:04 46° 297° (WNW) 08:03:07 437.470
UWE-3 16 Dec 08:16:29 08:20:48 78° 105° (ESE) 08:25:12 435.000/436.395/437.385
CUBEBUG 2 16 Dec 08:20:08 08:24:19 63° 289° (WNW) 08:28:36 437.445
AO-7 16 Dec 08:26:51 08:31:43 17° 343° (NNW) 08:36:34 .
SEEDS 16 Dec 08:26:52 08:31:02 53° 291° (WNW) 08:35:10 437.485
LilacSat-2 16 Dec 08:28:00 08:29:38 12° 307° (NW) 08:31:15 437.200
YUBILEINY 16 Dec 08:36:08 08:36:36 10° 353° (N) 08:37:04 435.215
NO-84 16 Dec 08:37:45 08:40:57 69° 165° (SSE) 08:44:28 435.350 FM
NUDT-PHONESAT 16 Dec 08:37:55 08:39:42 13° 306° (NW) 08:41:29 437.300
ZACube-1 16 Dec 08:38:06 08:42:26 72° 103° (ESE) 08:46:51 437.345
AAUSAT CUBESAT 2 16 Dec 08:41:02 08:45:15 77° 286° (WNW) 08:49:23 437.432
XW-2D 16 Dec 08:41:32 08:41:46 10° 309° (NW) 08:41:59 145.860 - 145.880
KAITUO 1B 16 Dec 08:44:48 08:46:07 12° 307° (NW) 08:47:25 145.475/437.950
XW-2A 16 Dec 08:47:33 08:50:57 56° 289° (WNW) 08:54:19 145.665 - 145.685
O/OREOS (USA 219) 16 Dec 08:48:09 08:52:41 64° 117° (ESE) 08:57:13 437.305
STRAND 1 16 Dec 08:50:54 08:51:53 10° 279° (W) 08:52:51 437.568
CUTE 1.7 + AOD 2 16 Dec 08:53:20 08:56:48 24° 300° (WNW) 09:00:15 437.475
FO-29 16 Dec 08:53:29 09:00:43 39° 268° (W) 09:07:53 435.910
Oscar 11 16 Dec 08:55:09 08:59:30 64° 102° (ESE) 09:03:51 .
TIGRISAT 16 Dec 09:08:12 09:12:29 82° 255° (WSW) 09:16:46 435.000
AO-73 16 Dec 09:11:10 09:15:29 67° 289° (WNW) 09:19:52 145.935
UNISAT 6 16 Dec 09:11:57 09:16:13 71° 256° (WSW) 09:20:30 437.425
NANOSAT C BR1 16 Dec 09:17:42 09:18:37 11° 48° (NE) 09:19:33 145.865
Max Valier Satellite 16 Dec 09:19:42 09:22:30 20° 91° (E) 09:25:18 145.860
PRISM 16 Dec 09:22:26 09:26:31 56° 69° (ENE) 09:30:36 437.425
HO-68 16 Dec 09:25:42 09:32:09 37° 307° (NW) 09:38:34 435.675
DELFI C3 16 Dec 09:28:30 09:32:07 33° 96° (E) 09:35:42 145.870
EO-79 16 Dec 09:32:22 09:34:45 15° 53° (NE) 09:37:09 145.935-145.965
CUTE-I 16 Dec 09:34:41 09:36:57 13° 318° (NW) 09:39:12 437.470
EO-88 16 Dec 09:43:52 09:46:56 24° 93° (E) 09:49:58 145.990 - 145.960
AIST 2D 16 Dec 09:51:24 09:54:41 37° 67° (ENE) 09:57:59 435.315
UWE-3 16 Dec 09:53:49 09:56:49 19° 303° (WNW) 09:59:51 435.000/436.395/437.385
POLYITAN 1 16 Dec 09:54:47 09:57:58 22° 58° (ENE) 10:01:11 437.675
CUBEBUG 2 16 Dec 09:58:29 10:00:11 12° 309° (NW) 10:01:54 437.445
SEEDS 16 Dec 10:04:43 10:05:49 11° 311° (NW) 10:06:54 437.485
NO-84 16 Dec 10:14:49 10:18:12 89° 158° (SSE) 10:21:54 435.350 FM
ZACube-1 16 Dec 10:15:08 10:18:20 20° 302° (WNW) 10:21:32 437.345
AO-7 16 Dec 10:16:59 10:21:24 16° 11° (N) 10:25:50 .
AAUSAT CUBESAT 2 16 Dec 10:17:48 10:20:01 14° 307° (NW) 10:22:13 437.432
QB50P2 16 Dec 10:19:47 10:23:38 36° 64° (ENE) 10:27:29 145.880/145.840
DUCHIFAT 1 16 Dec 10:22:36 10:26:11 29° 62° (ENE) 10:29:47 145.980
O/OREOS (USA 219) 16 Dec 10:28:30 10:32:29 28° 318° (NW) 10:36:27 437.305
Oscar 11 16 Dec 10:31:54 10:35:18 22° 302° (WNW) 10:38:40 .
YUBILEINY 16 Dec 10:34:33 10:38:54 14° 28° (NNE) 10:43:14 435.215
Gurwin Techsat 1B 16 Dec 10:46:53 10:49:40 15° 44° (NE) 10:52:27 435.225
TIGRISAT 16 Dec 10:48:04 10:49:54 12° 275° (W) 10:51:45 435.000
AO-73 16 Dec 10:48:55 10:51:00 13° 308° (NW) 10:53:05 145.935
NANOSAT C BR1 16 Dec 10:49:23 10:53:27 53° 69° (ENE) 10:57:32 145.865
UNISAT 6 16 Dec 10:52:46 10:53:46 11° 277° (W) 10:54:47 437.425
Max Valier Satellite 16 Dec 10:52:57 10:56:35 50° 290° (WNW) 11:00:12 145.860
BUGSAT 1 16 Dec 10:57:37 11:00:30 19° 57° (ENE) 11:03:22 437.445
PRISM 16 Dec 10:58:52 11:02:06 22° 268° (W) 11:05:21 437.425
DELFI C3 16 Dec 11:03:17 11:06:51 33° 296° (WNW) 11:10:23 145.870
EO-79 16 Dec 11:05:41 11:09:53 82° 73° (ENE) 11:14:06 145.935-145.965
HO-68 16 Dec 11:14:24 11:18:02 15° 332° (NNW) 11:21:40 435.675
ESTCUBE 1 16 Dec 11:16:29 11:20:33 31° 94° (E) 11:24:35 437.505/2401.250
EO-88 16 Dec 11:17:14 11:20:42 39° 293° (WNW) 11:24:09 145.990 - 145.960
AIST 2D 16 Dec 11:25:04 11:27:57 23° 267° (W) 11:30:53 435.315
POLYITAN 1 16 Dec 11:29:15 11:33:24 63° 257° (WSW) 11:37:35 437.675
Oscar 19 16 Dec 11:29:15 11:33:41 30° 57° (ENE) 11:38:07 437.125/150
SPROUT 16 Dec 11:35:37 11:37:54 14° 86° (E) 11:40:10 437.525
LO-87 16 Dec 11:42:15 11:45:48 66° 103° (ESE) 11:49:20 145.935 - 145.965
AO-91 16 Dec 11:47:27 11:51:28 31° 64° (ENE) 11:55:09 145.960
NO-84 16 Dec 11:51:56 11:55:22 47° 205° (SSW) 11:59:04 435.350 FM
QB50P2 16 Dec 11:55:38 11:59:27 33° 264° (W) 12:03:18 145.880/145.840
DUCHIFAT 1 16 Dec 11:57:45 12:01:43 43° 261° (W) 12:05:43 145.980
nSIGHT-1 16 Dec 12:01:14 12:03:43 20° 153° (SSE) 12:06:12 .
AO-7 16 Dec 12:04:55 12:11:35 28° 37° (NE) 12:18:16 .
O/OREOS (USA 219) 16 Dec 12:11:51 12:13:26 12° 342° (NNW) 12:15:02 437.305
Gurwin Techsat 1B 16 Dec 12:23:25 12:28:35 54° 66° (ENE) 12:33:47 435.225
NANOSAT C BR1 16 Dec 12:26:08 12:29:26 23° 268° (W) 12:32:48 145.865
YUBILEINY 16 Dec 12:31:08 12:39:12 37° 58° (ENE) 12:47:10 435.215
BUGSAT 1 16 Dec 12:31:27 12:35:27 67° 256° (WSW) 12:39:29 437.445
VELOX 1 16 Dec 12:42:39 12:46:42 34° 96° (E) 12:50:43 145.980
RS-15 16 Dec 12:42:48 12:50:08 19° 94° (E) 12:57:24 29.354- 29.394
EO-79 16 Dec 12:43:45 12:46:13 15° 273° (W) 12:48:42 145.935-145.965
ITAMSAT 1 16 Dec 12:47:15 12:50:02 15° 45° (NE) 12:52:50 435.822/435.867
ISS 16 Dec 12:48:41 12:51:36 29° 160° (SSE) 12:54:31 437.550
ESTCUBE 1 16 Dec 12:53:10 12:57:30 44° 295° (WNW) 13:01:49 437.505/2401.250
Oscar 19 16 Dec 13:07:38 13:12:43 60° 258° (WSW) 13:17:53 437.125/150
SPROUT 16 Dec 13:10:09 13:14:25 89° 289° (WNW) 13:18:41 437.525
UKube-1 16 Dec 13:14:56 13:16:53 13° 86° (E) 13:18:48 .
LO-87 16 Dec 13:16:35 13:18:49 16° 302° (WNW) 13:21:02 145.935 - 145.965
M-CUBED/EXP-1 PRIME 16 Dec 13:21:08 13:25:11 33° 54° (NE) 13:29:21 437.505
